Hourly Data Report for September 19, 2020

BRIER ISLAND
NOVA SCOTIA
Current Station Operator: ECCC - MSC

44°17'09.000" N
66°20'48.000" W
15.80 m
8200604
71988
WVU

Download Data

Hourly Data (September 2020)
Hourly Data Report for September 19, 2020
TIME Temp Definition
°C
Dew Point Definition
°C
Rel Hum Definition
%
Wind Dir Definition
10's deg

Wind Spd Definition
km/h
Visibility Definition
km
Stn Press Definition
kPa
Hmdx Definition


Wind Chill Definition


Weather Definition


00:00 10.9 9.2 89 2 32   101.41     LegendNANA
01:00 11.2 8.8 85 36 35   101.46     LegendNANA
02:00 10.8 8.8 87 35 35   101.50     LegendNANA
03:00 10.5 7.8 83 35 39   101.56     LegendNANA
04:00 10.3 6.0 75 35 34   101.63     LegendNANA
05:00 10.3 4.8 69 35 36   101.68     LegendNANA
06:00 10.3 4.8 69 35 33   101.76     LegendNANA
07:00 10.3 6.3 76 34 32   101.84     LegendNANA
08:00 10.5 4.3 66 36 25   101.91     LegendNANA
09:00 10.9 5.2 68 35 21   101.99     LegendNANA
10:00 11.5 4.7 63 34 25   102.06     LegendNANA
11:00 11.8 5.3 64 35 19   102.10     LegendNANA
12:00 11.9 4.7 62 33 24   102.08     LegendNANA
13:00 11.8 5.0 63 32 34   102.07     LegendNANA
14:00 12.0 3.3 55 32 35   102.08     LegendNANA
15:00 12.5 3.0 52 32 27   102.11     LegendNANA
16:00 12.7 3.7 54 33 19   102.12     LegendNANA
17:00 12.3 4.2 58 36 8   102.17     LegendNANA
18:00 11.7 4.4 61 2 4   102.22     LegendNANA
19:00 11.2 1.9 53   0   102.26     LegendNANA
20:00 10.9 2.9 57 27 6   102.34     LegendNANA
21:00 11.2 5.6 68 26 6   102.42     LegendNANA
22:00 10.6 7.5 81 29 16   102.41     LegendNANA
23:00 11.0 7.6 80 30 17   102.42     LegendNANA

Notes on Data Quality.

Legend

  • E = Estimated
  • M = Missing
  • NA = Not Available*
  • [empty] = Indicates an unobserved value
Date modified: